owner,sensor,date,latitude,longitude,vertical_datum,sea_water_temperature,qcFlag 
SCCF RECON,ioos:station:SCCF:53:1,2016-08-03T18:00:00Z,26.6493,-81.8810,2.11,29.85,2 
SCCF RECON,ioos:station:SCCF:53:1,2016-08-03T19:00:00Z,26.6493,-81.8810,2.11,30.59,2 
SCCF RECON,ioos:station:SCCF:53:1,2016-08-03T20:00:00Z,26.6493,-81.8810,2.11,30.45,2 
SCCF RECON,ioos:station:SCCF:53:1,2016-08-03T21:00:00Z,26.6493,-81.8810,2.11,30.44,2 
SCCF RECON,ioos:station:SCCF:53:1,2016-08-03T22:00:00Z,26.6493,-81.8810,2.11,30.42,2 
SCCF RECON,ioos:station:SCCF:53:1,2016-08-03T23:00:00Z,26.6493,-81.8810,2.11,30.74,2 
SCCF RECON,ioos:station:SCCF:53:1,2016-08-04T00:00:00Z,26.6493,-81.8810,2.11,30.77,2 
SCCF RECON,ioos:station:SCCF:53:1,2016-08-04T01:00:00Z,26.6493,-81.8810,2.11,30.59,2 
SCCF RECON,ioos:station:SCCF:53:1,2016-08-04T02:00:00Z,26.6493,-81.8810,2.11,30.62,2 
SCCF RECON,ioos:station:SCCF:53:1,2016-08-04T03:00:00Z,26.6493,-81.8810,2.11,30.29,2 
SCCF RECON,ioos:station:SCCF:53:1,2016-08-04T04:00:00Z,26.6493,-81.8810,2.11,30.13,2 
SCCF RECON,ioos:station:SCCF:53:1,2016-08-04T05:00:00Z,26.6493,-81.8810,2.11,30.07,2 
SCCF RECON,ioos:station:SCCF:53:1,2016-08-04T06:00:00Z,26.6493,-81.8810,2.11,30.0,2 
SCCF RECON,ioos:station:SCCF:53:1,2016-08-04T07:00:00Z,26.6493,-81.8810,2.11,29.85,2 
SCCF RECON,ioos:station:SCCF:53:1,2016-08-04T08:00:00Z,26.6493,-81.8810,2.11,29.86,2 
SCCF RECON,ioos:station:SCCF:53:1,2016-08-04T09:00:00Z,26.6493,-81.8810,2.11,29.86,2 
SCCF RECON,ioos:station:SCCF:53:1,2016-08-04T10:00:00Z,26.6493,-81.8810,2.11,29.84,2 
SCCF RECON,ioos:station:SCCF:53:1,2016-08-04T11:00:00Z,26.6493,-81.8810,2.11,29.78,2 
SCCF RECON,ioos:station:SCCF:53:1,2016-08-04T12:00:00Z,26.6493,-81.8810,2.11,29.57,2 
SCCF RECON,ioos:station:SCCF:53:1,2016-08-04T13:00:00Z,26.6493,-81.8810,2.11,29.61,2 
SCCF RECON,ioos:station:SCCF:53:1,2016-08-04T14:00:00Z,26.6493,-81.8810,2.11,29.73,2 
SCCF RECON,ioos:station:SCCF:53:1,2016-08-04T15:00:00Z,26.6493,-81.8810,2.11,29.77,2 
SCCF RECON,ioos:station:SCCF:53:1,2016-08-04T16:00:00Z,26.6493,-81.8810,2.11,29.89,2 
SCCF RECON,ioos:station:SCCF:53:1,2016-08-04T17:00:00Z,26.6493,-81.8810,2.11,29.99,2 
SCCF RECON,ioos:station:SCCF:53:1,2016-08-04T18:00:00Z,26.6493,-81.8810,2.11,30.05,2 
SCCF RECON,ioos:station:SCCF:53:1,2016-08-04T19:00:00Z,26.6493,-81.8810,2.11,30.27,2 
SCCF RECON,ioos:station:SCCF:53:1,2016-08-04T20:00:00Z,26.6493,-81.8810,2.11,30.61,2 
SCCF RECON,ioos:station:SCCF:53:1,2016-08-04T21:00:00Z,26.6493,-81.8810,2.11,30.55,2 
SCCF RECON,ioos:station:SCCF:53:1,2016-08-04T22:00:00Z,26.6493,-81.8810,2.11,30.61,2 
SCCF RECON,ioos:station:SCCF:53:1,2016-08-04T23:00:00Z,26.6493,-81.8810,2.11,31.0,2 
SCCF RECON,ioos:station:SCCF:53:1,2016-08-05T00:00:00Z,26.6493,-81.8810,2.11,31.16,2 
SCCF RECON,ioos:station:SCCF:53:1,2016-08-05T01:00:00Z,26.6493,-81.8810,2.11,30.89,2 
SCCF RECON,ioos:station:SCCF:53:1,2016-08-05T02:00:00Z,26.6493,-81.8810,2.11,30.74,2 
SCCF RECON,ioos:station:SCCF:53:1,2016-08-05T03:00:00Z,26.6493,-81.8810,2.11,30.65,2 
SCCF RECON,ioos:station:SCCF:53:1,2016-08-05T04:00:00Z,26.6493,-81.8810,2.11,30.53,2 
SCCF RECON,ioos:station:SCCF:53:1,2016-08-05T05:00:00Z,26.6493,-81.8810,2.11,30.4,2 
SCCF RECON,ioos:station:SCCF:53:1,2016-08-05T06:00:00Z,26.6493,-81.8810,2.11,30.26,2 
SCCF RECON,ioos:station:SCCF:53:1,2016-08-05T07:00:00Z,26.6493,-81.8810,2.11,30.37,2 
SCCF RECON,ioos:station:SCCF:53:1,2016-08-05T08:00:00Z,26.6493,-81.8810,2.11,30.26,2 
SCCF RECON,ioos:station:SCCF:53:1,2016-08-05T09:00:00Z,26.6493,-81.8810,2.11,30.18,2 
SCCF RECON,ioos:station:SCCF:53:1,2016-08-05T10:00:00Z,26.6493,-81.8810,2.11,30.19,2 
SCCF RECON,ioos:station:SCCF:53:1,2016-08-05T11:00:00Z,26.6493,-81.8810,2.11,30.08,2 
SCCF RECON,ioos:station:SCCF:53:1,2016-08-05T12:00:00Z,26.6493,-81.8810,2.11,29.98,2 
SCCF RECON,ioos:station:SCCF:53:1,2016-08-05T13:00:00Z,26.6493,-81.8810,2.11,29.9,2 
SCCF RECON,ioos:station:SCCF:53:1,2016-08-05T14:00:00Z,26.6493,-81.8810,2.11,29.99,2 
SCCF RECON,ioos:station:SCCF:53:1,2016-08-05T15:00:00Z,26.6493,-81.8810,2.11,30.12,2 
SCCF RECON,ioos:station:SCCF:53:1,2016-08-05T16:00:00Z,26.6493,-81.8810,2.11,30.28,2 
SCCF RECON,ioos:station:SCCF:53:1,2016-08-05T17:00:00Z,26.6493,-81.8810,2.11,30.41,2 
SCCF RECON,ioos:station:SCCF:53:1,2016-08-05T18:00:00Z,26.6493,-81.8810,2.11,30.49,2 
SCCF RECON,ioos:station:SCCF:53:1,2016-08-05T19:00:00Z,26.6493,-81.8810,2.11,30.74,2 
SCCF RECON,ioos:station:SCCF:53:1,2016-08-05T20:00:00Z,26.6493,-81.8810,2.11,31.05,2 
SCCF RECON,ioos:station:SCCF:53:1,2016-08-05T21:00:00Z,26.6493,-81.8810,2.11,31.06,2 
SCCF RECON,ioos:station:SCCF:53:1,2016-08-05T22:00:00Z,26.6493,-81.8810,2.11,31.17,2 
SCCF RECON,ioos:station:SCCF:53:1,2016-08-05T23:00:00Z,26.6493,-81.8810,2.11,31.41,2 
SCCF RECON,ioos:station:SCCF:53:1,2016-08-06T00:00:00Z,26.6493,-81.8810,2.11,31.25,2 
SCCF RECON,ioos:station:SCCF:53:1,2016-08-06T01:00:00Z,26.6493,-81.8810,2.11,31.16,2 
SCCF RECON,ioos:station:SCCF:53:1,2016-08-06T02:00:00Z,26.6493,-81.8810,2.11,31.05,2 
SCCF RECON,ioos:station:SCCF:53:1,2016-08-06T03:00:00Z,26.6493,-81.8810,2.11,30.99,2 
SCCF RECON,ioos:station:SCCF:53:1,2016-08-06T04:00:00Z,26.6493,-81.8810,2.11,30.93,2 
SCCF RECON,ioos:station:SCCF:53:1,2016-08-06T05:00:00Z,26.6493,-81.8810,2.11,30.81,2 
SCCF RECON,ioos:station:SCCF:53:1,2016-08-06T06:00:00Z,26.6493,-81.8810,2.11,30.98,2 
SCCF RECON,ioos:station:SCCF:53:1,2016-08-06T07:00:00Z,26.6493,-81.8810,2.11,30.9,2 
SCCF RECON,ioos:station:SCCF:53:1,2016-08-06T08:00:00Z,26.6493,-81.8810,2.11,30.67,2 
SCCF RECON,ioos:station:SCCF:53:1,2016-08-06T09:00:00Z,26.6493,-81.8810,2.11,30.65,2 
SCCF RECON,ioos:station:SCCF:53:1,2016-08-06T10:00:00Z,26.6493,-81.8810,2.11,30.57,2 
SCCF RECON,ioos:station:SCCF:53:1,2016-08-06T11:00:00Z,26.6493,-81.8810,2.11,30.52,2 
SCCF RECON,ioos:station:SCCF:53:1,2016-08-06T12:00:00Z,26.6493,-81.8810,2.11,30.38,2 
SCCF RECON,ioos:station:SCCF:53:1,2016-08-06T13:00:00Z,26.6493,-81.8810,2.11,30.39,2 
SCCF RECON,ioos:station:SCCF:53:1,2016-08-06T14:00:00Z,26.6493,-81.8810,2.11,30.48,2 
SCCF RECON,ioos:station:SCCF:53:1,2016-08-06T15:00:00Z,26.6493,-81.8810,2.11,30.62,2 
SCCF RECON,ioos:station:SCCF:53:1,2016-08-06T16:00:00Z,26.6493,-81.8810,2.11,30.65,2 
SCCF RECON,ioos:station:SCCF:53:1,2016-08-06T17:00:00Z,26.6493,-81.8810,2.11,30.86,2 
SCCF RECON,ioos:station:SCCF:53:1,2016-08-06T18:00:00Z,26.6493,-81.8810,2.11,30.82,2 
SCCF RECON,ioos:station:SCCF:53:1,2016-08-06T19:00:00Z,26.6493,-81.8810,2.11,30.98,2 
SCCF RECON,ioos:station:SCCF:53:1,2016-08-06T20:00:00Z,26.6493,-81.8810,2.11,31.0,2 
SCCF RECON,ioos:station:SCCF:53:1,2016-08-06T21:00:00Z,26.6493,-81.8810,2.11,30.9,2 
SCCF RECON,ioos:station:SCCF:53:1,2016-08-06T22:00:00Z,26.6493,-81.8810,2.11,30.91,2 
SCCF RECON,ioos:station:SCCF:53:1,2016-08-06T23:00:00Z,26.6493,-81.8810,2.11,30.87,2 
SCCF RECON,ioos:station:SCCF:53:1,2016-08-07T00:00:00Z,26.6493,-81.8810,2.11,30.89,2 
SCCF RECON,ioos:station:SCCF:53:1,2016-08-07T01:00:00Z,26.6493,-81.8810,2.11,30.78,2 
SCCF RECON,ioos:station:SCCF:53:1,2016-08-07T02:00:00Z,26.6493,-81.8810,2.11,30.76,2 
SCCF RECON,ioos:station:SCCF:53:1,2016-08-07T03:00:00Z,26.6493,-81.8810,2.11,30.74,2 
SCCF RECON,ioos:station:SCCF:53:1,2016-08-07T04:00:00Z,26.6493,-81.8810,2.11,30.69,2 
SCCF RECON,ioos:station:SCCF:53:1,2016-08-07T05:00:00Z,26.6493,-81.8810,2.11,30.64,2 
SCCF RECON,ioos:station:SCCF:53:1,2016-08-07T06:00:00Z,26.6493,-81.8810,2.11,30.57,2 
SCCF RECON,ioos:station:SCCF:53:1,2016-08-07T07:00:00Z,26.6493,-81.8810,2.11,30.43,2 
SCCF RECON,ioos:station:SCCF:53:1,2016-08-07T08:00:00Z,26.6493,-81.8810,2.11,30.48,2 
SCCF RECON,ioos:station:SCCF:53:1,2016-08-07T09:00:00Z,26.6493,-81.8810,2.11,30.45,2 
SCCF RECON,ioos:station:SCCF:53:1,2016-08-07T10:00:00Z,26.6493,-81.8810,2.11,30.39,2 
SCCF RECON,ioos:station:SCCF:53:1,2016-08-07T11:00:00Z,26.6493,-81.8810,2.11,30.34,2 
SCCF RECON,ioos:station:SCCF:53:1,2016-08-07T12:00:00Z,26.6493,-81.8810,2.11,30.25,2 
SCCF RECON,ioos:station:SCCF:53:1,2016-08-07T13:00:00Z,26.6493,-81.8810,2.11,30.19,2 
SCCF RECON,ioos:station:SCCF:53:1,2016-08-07T14:00:00Z,26.6493,-81.8810,2.11,30.07,2 
SCCF RECON,ioos:station:SCCF:53:1,2016-08-07T15:00:00Z,26.6493,-81.8810,2.11,30.08,2 
SCCF RECON,ioos:station:SCCF:53:1,2016-08-07T16:00:00Z,26.6493,-81.8810,2.11,30.01,2 
SCCF RECON,ioos:station:SCCF:53:1,2016-08-07T17:00:00Z,26.6493,-81.8810,2.11,30.07,2 
SCCF RECON,ioos:station:SCCF:53:1,2016-08-07T18:00:00Z,26.6493,-81.8810,2.11,30.08,2 
SCCF RECON,ioos:station:SCCF:53:1,2016-08-07T19:00:00Z,26.6493,-81.8810,2.11,30.05,2 
SCCF RECON,ioos:station:SCCF:53:1,2016-08-07T20:00:00Z,26.6493,-81.8810,2.11,30.24,2 
SCCF RECON,ioos:station:SCCF:53:1,2016-08-07T21:00:00Z,26.6493,-81.8810,2.11,30.34,2 
SCCF RECON,ioos:station:SCCF:53:1,2016-08-07T22:00:00Z,26.6493,-81.8810,2.11,30.31,2 
SCCF RECON,ioos:station:SCCF:53:1,2016-08-07T23:00:00Z,26.6493,-81.8810,2.11,30.27,2 
SCCF RECON,ioos:station:SCCF:53:1,2016-08-08T00:00:00Z,26.6493,-81.8810,2.11,30.14,2 
SCCF RECON,ioos:station:SCCF:53:1,2016-08-08T01:00:00Z,26.6493,-81.8810,2.11,30.09,2 
SCCF RECON,ioos:station:SCCF:53:1,2016-08-08T02:00:00Z,26.6493,-81.8810,2.11,29.97,2 
SCCF RECON,ioos:station:SCCF:53:1,2016-08-08T03:00:00Z,26.6493,-81.8810,2.11,29.9,2 
SCCF RECON,ioos:station:SCCF:53:1,2016-08-08T04:00:00Z,26.6493,-81.8810,2.11,29.76,2 
SCCF RECON,ioos:station:SCCF:53:1,2016-08-08T05:00:00Z,26.6493,-81.8810,2.11,29.78,2 
SCCF RECON,ioos:station:SCCF:53:1,2016-08-08T06:00:00Z,26.6493,-81.8810,2.11,29.69,2 
SCCF RECON,ioos:station:SCCF:53:1,2016-08-08T07:00:00Z,26.6493,-81.8810,2.11,29.57,2 
SCCF RECON,ioos:station:SCCF:53:1,2016-08-08T08:00:00Z,26.6493,-81.8810,2.11,29.55,2 
SCCF RECON,ioos:station:SCCF:53:1,2016-08-08T09:00:00Z,26.6493,-81.8810,2.11,29.56,2 
SCCF RECON,ioos:station:SCCF:53:1,2016-08-08T10:00:00Z,26.6493,-81.8810,2.11,29.52,2 
SCCF RECON,ioos:station:SCCF:53:1,2016-08-08T11:00:00Z,26.6493,-81.8810,2.11,29.45,2 
SCCF RECON,ioos:station:SCCF:53:1,2016-08-08T12:00:00Z,26.6493,-81.8810,2.11,29.38,2 
SCCF RECON,ioos:station:SCCF:53:1,2016-08-08T13:00:00Z,26.6493,-81.8810,2.11,29.36,2 
SCCF RECON,ioos:station:SCCF:53:1,2016-08-08T14:00:00Z,26.6493,-81.8810,2.11,29.35,2 
SCCF RECON,ioos:station:SCCF:53:1,2016-08-08T15:00:00Z,26.6493,-81.8810,2.11,29.34,2 
SCCF RECON,ioos:station:SCCF:53:1,2016-08-08T16:00:00Z,26.6493,-81.8810,2.11,29.33,2 
SCCF RECON,ioos:station:SCCF:53:1,2016-08-08T17:00:00Z,26.6493,-81.8810,2.11,29.33,2 
SCCF RECON,ioos:station:SCCF:53:1,2016-08-08T18:00:00Z,26.6493,-81.8810,2.11,29.4,2 
SCCF RECON,ioos:station:SCCF:53:1,2016-08-08T19:00:00Z,26.6493,-81.8810,2.11,29.37,2 
SCCF RECON,ioos:station:SCCF:53:1,2016-08-08T20:00:00Z,26.6493,-81.8810,2.11,29.35,2 
SCCF RECON,ioos:station:SCCF:53:1,2016-08-08T21:00:00Z,26.6493,-81.8810,2.11,29.35,2 
SCCF RECON,ioos:station:SCCF:53:1,2016-08-08T22:00:00Z,26.6493,-81.8810,2.11,29.36,2 
SCCF RECON,ioos:station:SCCF:53:1,2016-08-08T23:00:00Z,26.6493,-81.8810,2.11,29.36,2 
SCCF RECON,ioos:station:SCCF:53:1,2016-08-09T00:00:00Z,26.6493,-81.8810,2.11,29.29,2 
SCCF RECON,ioos:station:SCCF:53:1,2016-08-09T01:00:00Z,26.6493,-81.8810,2.11,29.26,2 
SCCF RECON,ioos:station:SCCF:53:1,2016-08-09T02:00:00Z,26.6493,-81.8810,2.11,29.19,2 
SCCF RECON,ioos:station:SCCF:53:1,2016-08-09T03:00:00Z,26.6493,-81.8810,2.11,29.1,2 
SCCF RECON,ioos:station:SCCF:53:1,2016-08-09T04:00:00Z,26.6493,-81.8810,2.11,29.07,2 
SCCF RECON,ioos:station:SCCF:53:1,2016-08-09T05:00:00Z,26.6493,-81.8810,2.11,29.08,2 
SCCF RECON,ioos:station:SCCF:53:1,2016-08-09T06:00:00Z,26.6493,-81.8810,2.11,29.08,2 
SCCF RECON,ioos:station:SCCF:53:1,2016-08-09T07:00:00Z,26.6493,-81.8810,2.11,29.03,2 
SCCF RECON,ioos:station:SCCF:53:1,2016-08-09T08:00:00Z,26.6493,-81.8810,2.11,29.01,2 
SCCF RECON,ioos:station:SCCF:53:1,2016-08-09T09:00:00Z,26.6493,-81.8810,2.11,28.94,2 
SCCF RECON,ioos:station:SCCF:53:1,2016-08-09T10:00:00Z,26.6493,-81.8810,2.11,28.86,2 
SCCF RECON,ioos:station:SCCF:53:1,2016-08-09T11:00:00Z,26.6493,-81.8810,2.11,28.78,2 
SCCF RECON,ioos:station:SCCF:53:1,2016-08-09T12:00:00Z,26.6493,-81.8810,2.11,28.74,2 
SCCF RECON,ioos:station:SCCF:53:1,2016-08-09T13:00:00Z,26.6493,-81.8810,2.11,28.69,2 
SCCF RECON,ioos:station:SCCF:53:1,2016-08-09T14:00:00Z,26.6493,-81.8810,2.11,28.75,2 
SCCF RECON,ioos:station:SCCF:53:1,2016-08-09T15:00:00Z,26.6493,-81.8810,2.11,28.79,2 
SCCF RECON,ioos:station:SCCF:53:1,2016-08-09T16:00:00Z,26.6493,-81.8810,2.11,28.92,2 
SCCF RECON,ioos:station:SCCF:53:1,2016-08-09T17:00:00Z,26.6493,-81.8810,2.11,29.08,2 
SCCF RECON,ioos:station:SCCF:53:1,2016-08-09T18:00:00Z,26.6493,-81.8810,2.11,29.21,2 
SCCF RECON,ioos:station:SCCF:53:1,2016-08-09T19:00:00Z,26.6493,-81.8810,2.11,29.23,2 
SCCF RECON,ioos:station:SCCF:53:1,2016-08-09T20:00:00Z,26.6493,-81.8810,2.11,29.27,2 
SCCF RECON,ioos:station:SCCF:53:1,2016-08-09T21:00:00Z,26.6493,-81.8810,2.11,29.34,2 
SCCF RECON,ioos:station:SCCF:53:1,2016-08-09T22:00:00Z,26.6493,-81.8810,2.11,29.35,2 
SCCF RECON,ioos:station:SCCF:53:1,2016-08-09T23:00:00Z,26.6493,-81.8810,2.11,29.33,2 
SCCF RECON,ioos:station:SCCF:53:1,2016-08-10T00:00:00Z,26.6493,-81.8810,2.11,29.32,2 
SCCF RECON,ioos:station:SCCF:53:1,2016-08-10T01:00:00Z,26.6493,-81.8810,2.11,29.3,2 
SCCF RECON,ioos:station:SCCF:53:1,2016-08-10T02:00:00Z,26.6493,-81.8810,2.11,29.24,2 
SCCF RECON,ioos:station:SCCF:53:1,2016-08-10T03:00:00Z,26.6493,-81.8810,2.11,29.14,2 
SCCF RECON,ioos:station:SCCF:53:1,2016-08-10T04:00:00Z,26.6493,-81.8810,2.11,29.11,2 
SCCF RECON,ioos:station:SCCF:53:1,2016-08-10T05:00:00Z,26.6493,-81.8810,2.11,29.06,2 
SCCF RECON,ioos:station:SCCF:53:1,2016-08-10T06:00:00Z,26.6493,-81.8810,2.11,29.0,2 
SCCF RECON,ioos:station:SCCF:53:1,2016-08-10T07:00:00Z,26.6493,-81.8810,2.11,28.94,2 
SCCF RECON,ioos:station:SCCF:53:1,2016-08-10T08:00:00Z,26.6493,-81.8810,2.11,28.95,2 
SCCF RECON,ioos:station:SCCF:53:1,2016-08-10T09:00:00Z,26.6493,-81.8810,2.11,28.9,2 
SCCF RECON,ioos:station:SCCF:53:1,2016-08-10T10:00:00Z,26.6493,-81.8810,2.11,28.85,2 
SCCF RECON,ioos:station:SCCF:53:1,2016-08-10T11:00:00Z,26.6493,-81.8810,2.11,28.83,2 
SCCF RECON,ioos:station:SCCF:53:1,2016-08-10T12:00:00Z,26.6493,-81.8810,2.11,28.83,2 
SCCF RECON,ioos:station:SCCF:53:1,2016-08-10T13:00:00Z,26.6493,-81.8810,2.11,28.81,2 
SCCF RECON,ioos:station:SCCF:53:1,2016-08-10T14:00:00Z,26.6493,-81.8810,2.11,28.81,2 
SCCF RECON,ioos:station:SCCF:53:1,2016-08-10T15:00:00Z,26.6493,-81.8810,2.11,28.78,2 
SCCF RECON,ioos:station:SCCF:53:1,2016-08-10T16:00:00Z,26.6493,-81.8810,2.11,28.82,2 
SCCF RECON,ioos:station:SCCF:53:1,2016-08-10T17:00:00Z,26.6493,-81.8810,2.11,28.98,2 
SCCF RECON,ioos:station:SCCF:53:1,2016-08-10T18:00:00Z,26.6493,-81.8810,2.11,29.16,2 
SCCF RECON,ioos:station:SCCF:53:1,2016-08-10T19:00:00Z,26.6493,-81.8810,2.11,29.29,2 
SCCF RECON,ioos:station:SCCF:53:1,2016-08-10T20:00:00Z,26.6493,-81.8810,2.11,29.4,2 
SCCF RECON,ioos:station:SCCF:53:1,2016-08-10T21:00:00Z,26.6493,-81.8810,2.11,29.53,2 
SCCF RECON,ioos:station:SCCF:53:1,2016-08-10T22:00:00Z,26.6493,-81.8810,2.11,30.06,2 
SCCF RECON,ioos:station:SCCF:53:1,2016-08-10T23:00:00Z,26.6493,-81.8810,2.11,29.71,2 
SCCF RECON,ioos:station:SCCF:53:1,2016-08-11T00:00:00Z,26.6493,-81.8810,2.11,29.75,2 
SCCF RECON,ioos:station:SCCF:53:1,2016-08-11T01:00:00Z,26.6493,-81.8810,2.11,29.72,2 
SCCF RECON,ioos:station:SCCF:53:1,2016-08-11T02:00:00Z,26.6493,-81.8810,2.11,29.67,2 
SCCF RECON,ioos:station:SCCF:53:1,2016-08-11T03:00:00Z,26.6493,-81.8810,2.11,29.65,2 
SCCF RECON,ioos:station:SCCF:53:1,2016-08-11T04:00:00Z,26.6493,-81.8810,2.11,29.55,2 
SCCF RECON,ioos:station:SCCF:53:1,2016-08-11T05:00:00Z,26.6493,-81.8810,2.11,29.55,2 
SCCF RECON,ioos:station:SCCF:53:1,2016-08-11T06:00:00Z,26.6493,-81.8810,2.11,29.57,2 
SCCF RECON,ioos:station:SCCF:53:1,2016-08-11T07:00:00Z,26.6493,-81.8810,2.11,29.49,2 
SCCF RECON,ioos:station:SCCF:53:1,2016-08-11T08:00:00Z,26.6493,-81.8810,2.11,29.43,2 
SCCF RECON,ioos:station:SCCF:53:1,2016-08-11T09:00:00Z,26.6493,-81.8810,2.11,29.41,2 
SCCF RECON,ioos:station:SCCF:53:1,2016-08-11T10:00:00Z,26.6493,-81.8810,2.11,29.36,2 
SCCF RECON,ioos:station:SCCF:53:1,2016-08-11T11:00:00Z,26.6493,-81.8810,2.11,29.35,2 
SCCF RECON,ioos:station:SCCF:53:1,2016-08-11T12:00:00Z,26.6493,-81.8810,2.11,29.26,2 
SCCF RECON,ioos:station:SCCF:53:1,2016-08-11T13:00:00Z,26.6493,-81.8810,2.11,29.29,2 
SCCF RECON,ioos:station:SCCF:53:1,2016-08-11T14:00:00Z,26.6493,-81.8810,2.11,29.11,2 
SCCF RECON,ioos:station:SCCF:53:1,2016-08-11T15:00:00Z,26.6493,-81.8810,2.11,29.09,2 
SCCF RECON,ioos:station:SCCF:53:1,2016-08-11T16:00:00Z,26.6493,-81.8810,2.11,29.14,2 
SCCF RECON,ioos:station:SCCF:53:1,2016-08-11T17:00:00Z,26.6493,-81.8810,2.11,29.27,2 
SCCF RECON,ioos:station:SCCF:53:1,2016-08-11T18:00:00Z,26.6493,-81.8810,2.11,29.45,2 
SCCF RECON,ioos:station:SCCF:53:1,2016-08-11T19:00:00Z,26.6493,-81.8810,2.11,29.73,2 
SCCF RECON,ioos:station:SCCF:53:1,2016-08-11T20:00:00Z,26.6493,-81.8810,2.11,29.94,2 
SCCF RECON,ioos:station:SCCF:53:1,2016-08-11T21:00:00Z,26.6493,-81.8810,2.11,30.0,2 
SCCF RECON,ioos:station:SCCF:53:1,2016-08-11T22:00:00Z,26.6493,-81.8810,2.11,30.3,2 
SCCF RECON,ioos:station:SCCF:53:1,2016-08-11T23:00:00Z,26.6493,-81.8810,2.11,30.12,2 
SCCF RECON,ioos:station:SCCF:53:1,2016-08-12T00:00:00Z,26.6493,-81.8810,2.11,30.14,2 
SCCF RECON,ioos:station:SCCF:53:1,2016-08-12T01:00:00Z,26.6493,-81.8810,2.11,30.29,2 
SCCF RECON,ioos:station:SCCF:53:1,2016-08-12T02:00:00Z,26.6493,-81.8810,2.11,29.91,2 
SCCF RECON,ioos:station:SCCF:53:1,2016-08-12T03:00:00Z,26.6493,-81.8810,2.11,29.86,2 
SCCF RECON,ioos:station:SCCF:53:1,2016-08-12T04:00:00Z,26.6493,-81.8810,2.11,29.81,2 
SCCF RECON,ioos:station:SCCF:53:1,2016-08-12T05:00:00Z,26.6493,-81.8810,2.11,29.77,2 
SCCF RECON,ioos:station:SCCF:53:1,2016-08-12T06:00:00Z,26.6493,-81.8810,2.11,29.73,2 
SCCF RECON,ioos:station:SCCF:53:1,2016-08-12T07:00:00Z,26.6493,-81.8810,2.11,29.79,2 
SCCF RECON,ioos:station:SCCF:53:1,2016-08-12T08:00:00Z,26.6493,-81.8810,2.11,29.78,2 
SCCF RECON,ioos:station:SCCF:53:1,2016-08-12T09:00:00Z,26.6493,-81.8810,2.11,29.91,2 
SCCF RECON,ioos:station:SCCF:53:1,2016-08-12T10:00:00Z,26.6493,-81.8810,2.11,29.86,2 
SCCF RECON,ioos:station:SCCF:53:1,2016-08-12T11:00:00Z,26.6493,-81.8810,2.11,29.77,2 
SCCF RECON,ioos:station:SCCF:53:1,2016-08-12T12:00:00Z,26.6493,-81.8810,2.11,29.71,2 
SCCF RECON,ioos:station:SCCF:53:1,2016-08-12T13:00:00Z,26.6493,-81.8810,2.11,29.53,2 
SCCF RECON,ioos:station:SCCF:53:1,2016-08-12T14:00:00Z,26.6493,-81.8810,2.11,29.44,2 
SCCF RECON,ioos:station:SCCF:53:1,2016-08-12T15:00:00Z,26.6493,-81.8810,2.11,29.43,2 
SCCF RECON,ioos:station:SCCF:53:1,2016-08-12T16:00:00Z,26.6493,-81.8810,2.11,29.49,2 
SCCF RECON,ioos:station:SCCF:53:1,2016-08-12T17:00:00Z,26.6493,-81.8810,2.11,29.59,2 
SCCF RECON,ioos:station:SCCF:53:1,2016-08-12T18:00:00Z,26.6493,-81.8810,2.11,29.65,2 
SCCF RECON,ioos:station:SCCF:53:1,2016-08-12T19:00:00Z,26.6493,-81.8810,2.11,29.96,2 
SCCF RECON,ioos:station:SCCF:53:1,2016-08-12T20:00:00Z,26.6493,-81.8810,2.11,30.36,2 
SCCF RECON,ioos:station:SCCF:53:1,2016-08-12T21:00:00Z,26.6493,-81.8810,2.11,30.45,2 
SCCF RECON,ioos:station:SCCF:53:1,2016-08-12T22:00:00Z,26.6493,-81.8810,2.11,30.53,2 
SCCF RECON,ioos:station:SCCF:53:1,2016-08-12T23:00:00Z,26.6493,-81.8810,2.11,30.5,2 
SCCF RECON,ioos:station:SCCF:53:1,2016-08-13T00:00:00Z,26.6493,-81.8810,2.11,30.46,2 
SCCF RECON,ioos:station:SCCF:53:1,2016-08-13T01:00:00Z,26.6493,-81.8810,2.11,30.36,2 
SCCF RECON,ioos:station:SCCF:53:1,2016-08-13T02:00:00Z,26.6493,-81.8810,2.11,30.29,2 
SCCF RECON,ioos:station:SCCF:53:1,2016-08-13T03:00:00Z,26.6493,-81.8810,2.11,30.35,2 
SCCF RECON,ioos:station:SCCF:53:1,2016-08-13T04:00:00Z,26.6493,-81.8810,2.11,30.24,2 
SCCF RECON,ioos:station:SCCF:53:1,2016-08-13T05:00:00Z,26.6493,-81.8810,2.11,30.07,2 
SCCF RECON,ioos:station:SCCF:53:1,2016-08-13T06:00:00Z,26.6493,-81.8810,2.11,29.72,2 
SCCF RECON,ioos:station:SCCF:53:1,2016-08-13T07:00:00Z,26.6493,-81.8810,2.11,29.78,2 
SCCF RECON,ioos:station:SCCF:53:1,2016-08-13T08:00:00Z,26.6493,-81.8810,2.11,29.86,2 
SCCF RECON,ioos:station:SCCF:53:1,2016-08-13T09:00:00Z,26.6493,-81.8810,2.11,29.8,2 
SCCF RECON,ioos:station:SCCF:53:1,2016-08-13T10:00:00Z,26.6493,-81.8810,2.11,29.61,2 
SCCF RECON,ioos:station:SCCF:53:1,2016-08-13T11:00:00Z,26.6493,-81.8810,2.11,29.6,2 
SCCF RECON,ioos:station:SCCF:53:1,2016-08-13T12:00:00Z,26.6493,-81.8810,2.11,29.58,2 
SCCF RECON,ioos:station:SCCF:53:1,2016-08-13T13:00:00Z,26.6493,-81.8810,2.11,29.58,2 
SCCF RECON,ioos:station:SCCF:53:1,2016-08-13T14:00:00Z,26.6493,-81.8810,2.11,29.47,2 
SCCF RECON,ioos:station:SCCF:53:1,2016-08-13T15:00:00Z,26.6493,-81.8810,2.11,29.28,2 
SCCF RECON,ioos:station:SCCF:53:1,2016-08-13T16:00:00Z,26.6493,-81.8810,2.11,29.38,2 
SCCF RECON,ioos:station:SCCF:53:1,2016-08-13T17:00:00Z,26.6493,-81.8810,2.11,29.52,2 
SCCF RECON,ioos:station:SCCF:53:1,2016-08-13T18:00:00Z,26.6493,-81.8810,2.11,30.14,2 
SCCF RECON,ioos:station:SCCF:53:1,2016-08-13T19:00:00Z,26.6493,-81.8810,2.11,30.13,2 
SCCF RECON,ioos:station:SCCF:53:1,2016-08-13T20:00:00Z,26.6493,-81.8810,2.11,30.27,2 
SCCF RECON,ioos:station:SCCF:53:1,2016-08-13T21:00:00Z,26.6493,-81.8810,2.11,30.5,2 
SCCF RECON,ioos:station:SCCF:53:1,2016-08-13T22:00:00Z,26.6493,-81.8810,2.11,30.57,2 
SCCF RECON,ioos:station:SCCF:53:1,2016-08-13T23:00:00Z,26.6493,-81.8810,2.11,30.59,2 
SCCF RECON,ioos:station:SCCF:53:1,2016-08-14T00:00:00Z,26.6493,-81.8810,2.11,30.64,2 
SCCF RECON,ioos:station:SCCF:53:1,2016-08-14T01:00:00Z,26.6493,-81.8810,2.11,30.55,2 
SCCF RECON,ioos:station:SCCF:53:1,2016-08-14T02:00:00Z,26.6493,-81.8810,2.11,30.47,2 
SCCF RECON,ioos:station:SCCF:53:1,2016-08-14T03:00:00Z,26.6493,-81.8810,2.11,30.43,2 
SCCF RECON,ioos:station:SCCF:53:1,2016-08-14T04:00:00Z,26.6493,-81.8810,2.11,30.32,2 
SCCF RECON,ioos:station:SCCF:53:1,2016-08-14T05:00:00Z,26.6493,-81.8810,2.11,30.28,2 
SCCF RECON,ioos:station:SCCF:53:1,2016-08-14T06:00:00Z,26.6493,-81.8810,2.11,30.24,2 
SCCF RECON,ioos:station:SCCF:53:1,2016-08-14T07:00:00Z,26.6493,-81.8810,2.11,30.18,2 
SCCF RECON,ioos:station:SCCF:53:1,2016-08-14T08:00:00Z,26.6493,-81.8810,2.11,30.08,2 
SCCF RECON,ioos:station:SCCF:53:1,2016-08-14T09:00:00Z,26.6493,-81.8810,2.11,30.08,2 
SCCF RECON,ioos:station:SCCF:53:1,2016-08-14T10:00:00Z,26.6493,-81.8810,2.11,30.05,2 
SCCF RECON,ioos:station:SCCF:53:1,2016-08-14T11:00:00Z,26.6493,-81.8810,2.11,29.99,2 
SCCF RECON,ioos:station:SCCF:53:1,2016-08-14T12:00:00Z,26.6493,-81.8810,2.11,29.91,2 
SCCF RECON,ioos:station:SCCF:53:1,2016-08-14T13:00:00Z,26.6493,-81.8810,2.11,29.94,2 
SCCF RECON,ioos:station:SCCF:53:1,2016-08-14T14:00:00Z,26.6493,-81.8810,2.11,29.92,2 
SCCF RECON,ioos:station:SCCF:53:1,2016-08-14T15:00:00Z,26.6493,-81.8810,2.11,29.76,2 
SCCF RECON,ioos:station:SCCF:53:1,2016-08-14T16:00:00Z,26.6493,-81.8810,2.11,29.99,2 
SCCF RECON,ioos:station:SCCF:53:1,2016-08-14T17:00:00Z,26.6493,-81.8810,2.11,30.08,2 
SCCF RECON,ioos:station:SCCF:53:1,2016-08-14T18:00:00Z,26.6493,-81.8810,2.11,30.12,2 
SCCF RECON,ioos:station:SCCF:53:1,2016-08-14T19:00:00Z,26.6493,-81.8810,2.11,30.27,2 
SCCF RECON,ioos:station:SCCF:53:1,2016-08-14T20:00:00Z,26.6493,-81.8810,2.11,30.44,2 
SCCF RECON,ioos:station:SCCF:53:1,2016-08-14T21:00:00Z,26.6493,-81.8810,2.11,30.51,2 
SCCF RECON,ioos:station:SCCF:53:1,2016-08-14T22:00:00Z,26.6493,-81.8810,2.11,30.55,2 
SCCF RECON,ioos:station:SCCF:53:1,2016-08-14T23:00:00Z,26.6493,-81.8810,2.11,30.55,2 
SCCF RECON,ioos:station:SCCF:53:1,2016-08-15T00:00:00Z,26.6493,-81.8810,2.11,30.54,2 
SCCF RECON,ioos:station:SCCF:53:1,2016-08-15T01:00:00Z,26.6493,-81.8810,2.11,30.33,2 
SCCF RECON,ioos:station:SCCF:53:1,2016-08-15T02:00:00Z,26.6493,-81.8810,2.11,30.42,2 
SCCF RECON,ioos:station:SCCF:53:1,2016-08-15T03:00:00Z,26.6493,-81.8810,2.11,30.37,2 
SCCF RECON,ioos:station:SCCF:53:1,2016-08-15T04:00:00Z,26.6493,-81.8810,2.11,30.24,2 
SCCF RECON,ioos:station:SCCF:53:1,2016-08-15T05:00:00Z,26.6493,-81.8810,2.11,30.29,2 
SCCF RECON,ioos:station:SCCF:53:1,2016-08-15T06:00:00Z,26.6493,-81.8810,2.11,30.21,2 
SCCF RECON,ioos:station:SCCF:53:1,2016-08-15T07:00:00Z,26.6493,-81.8810,2.11,30.07,2 